Regional Weather Roundup
Issued by NWS

Home | Current Version | Previous Version | Text Only | Print | Product List | Glossary On
Versions: 1 2 3 4 5 6 7 8 9 10 11 12 13 14 15 16 17 18 19 20 21 22 23 24 25 26 27 28 29 30 31 32 33 34 35 36 37 38 39 40 41 42 43 44 45 46 47 48 49 50
000
ASUS43 KMPX 060701
RWRMN
WEATHER ROUNDUP FOR MINNESOTA
NATIONAL WEATHER SERVICE TWIN CITIES/CHANHASSEN MN
100 AM CST FRI MAR 06 2015


NOTE: "FAIR" INDICATES FEW OR NO CLOUDS BELOW 12,000 FEET WITH NO
SIGNIFICANT WEATHER AND/OR OBSTRUCTIONS TO VISIBILITY. N/A MEANS
CURRENT SKY AND/OR WEATHER CONDITIONS ARE NOT AVAILABLE.

MNZ060>063-068>070-060800-
   Twin Cities Metro

CITY           SKY/WX    TMP DP  RH WIND       PRES   REMARKS
TWIN CITIES    PTCLDY     7   0  73 SE8       30.24F WCI  -6
ST PAUL        CLEAR      7   2  80 SE7       30.27F WCI  -5
CRYSTAL        MOCLDY    12   3  67 S10       30.21F WCI  -1
BLAINE         MOCLDY    10   5  79 S9        30.21F WCI  -2
LAKEVILLE      CLEAR      9   1  72 S10       30.23F WCI  -6
EDEN PRAIRIE   MOCLDY    11   2  67 S12       30.21F WCI  -3
SOUTH ST PAUL  CLEAR      9   1  72 S5        30.25F WCI   0
LAKE ELMO      FAIR       9   1  72 S8        30.24F WCI  -4
$$
MNZ001>005-007-008-013>017-022>024-027-028-060800-
   Northwest Minnesota

CITY           SKY/WX    TMP DP  RH WIND       PRES   REMARKS
BEMIDJI        MOCLDY    13   4  68 SW12G18   29.96F WCI  -1
HALLOCK        CLEAR     16  10  79 SW7       29.92S WCI   6
ROSEAU         CLEAR     19  10  68 SW16      29.88F WCI   5
WARROAD        PTCLDY    18  10  73 SW14G20   29.88F WCI   4
THIEF RVR FALL CLOUDY    18  10  73 SW14      29.93F WCI   4
CROOKSTON      CLOUDY    18  12  79 SW12      29.98F WCI   5
FOSSTON        CLOUDY    16   7  67 S21       29.96F WCI  -2
DETROIT LAKES  FAIR      12   7  79 S8        30.00F WCI   1
MOORHEAD       CLOUDY    16  10  79 S13G18    30.02F WCI   2
PARK RAPIDS    PTCLDY     8   1  73 S9        29.99F WCI  -5
MAHNOMEN       CLOUDY    15   7  70 S20       29.97F WCI  -2
$$
MNZ006-009>011-018-025>026-060800-
   North Central Minnesota

CITY           SKY/WX    TMP DP  RH WIND       PRES   REMARKS
BAUDETTE       CLOUDY    14   5  67 S9        29.88F WCI   2
FLAG ISLAND    CLOUDY    16   9  73 SW14      29.86S WCI   1
INTL FALLS     CLOUDY    12   1  61 SW9G20    29.93F WCI   0
WASKISH        CLOUDY    16   7  67 S7        29.93F WCI   6
BIG FORK       CLOUDY     9   1  72 S12       29.98F WCI  -6
LONGVILLE      FAIR       9   1  72 S7        30.03F WCI  -3
GRAND RAPIDS   CLEAR      5   0  78 S12       30.01F WCI -11
CRANE LAKE     MOCLDY     9   0  66 S9        30.00F WCI  -5
ORR            MOCLDY     9  -2  61 S9G18     29.96F WCI  -5
COOK           PTCLDY     7   0  72 S8        30.01F WCI  -6
WALKER         PTSUNNY   10   2  70 SW7G18    30.00F WCI  -1
$$
MNZ012-019>021-037-060800-
   Northeast Minnesota

CITY           SKY/WX    TMP DP  RH WIND       PRES   REMARKS
DULUTH         CLEAR      6  -3  66 SW14      30.08F WCI -11
ELY            CLOUDY     7   0  72 SW12G17   30.01F WCI  -9
HIBBING        CLEAR      3  -4  72 S5        30.04F WCI  -6
EVELETH        FAIR       5   0  78 SW8       30.06F WCI  -8
DULUTH HARBOR  CLEAR      9   0  66 SW15      30.17F WCI  -8
TWO HARBORS    CLEAR      7   0  72 SW8       30.10F WCI  -6
SILVER BAY     CLEAR      9   0  66 SW8       30.09F WCI  -4
GRAND MARAIS     N/A     12   1  61 W13G23    30.13F WCI  -3
G MARAIS ARPRT PTCLDY     1  -8  66 S8        30.01F WCI -12
$$
MNZ029>031-032-039>041-046>048-054>057-064-060800-
   West Central Minnesota

CITY           SKY/WX    TMP DP  RH WIND       PRES   REMARKS
FERGUS FALLS   PTCLDY    12   3  67 S14       30.07F WCI  -3
WHEATON        PTCLDY     9   3  78 SE10      30.08F WCI  -6
MORRIS         CLEAR     10   3  72 S13       30.07F WCI  -5
ALEXANDRIA     CLEAR     13   4  67 S13       30.06F WCI  -2
ELBOW LAKE     FAIR      11   5  76 S14       30.05F WCI  -5
WADENA         CLEAR      9   1  72 S9        30.03F WCI  -5
GLENWOOD       CLEAR     10   5  79 S13       30.09F WCI  -5
APPLETON       CLEAR     12   7  79 SE6       30.09F WCI   3
BENSON         FAIR      12   7  79 S8        30.10F WCI   1
ORTONVILLE     CLEAR     10   3  72 SE7       30.07F WCI   0
MADISON        CLEAR     21  10  63 SW9       30.09F WCI  11
WILLMAR        FAIR      12   5  73 SE8       30.13F WCI   1
$$
MNZ033>034-036-042>043-049>051-058-059-060800-
   Central Minnesota

CITY           SKY/WX    TMP DP  RH WIND       PRES   REMARKS
ST CLOUD       PTCLDY     8   1  73 S12       30.15F WCI  -7
SAUK CENTRE    FAIR      11   4  73 S7        30.09F WCI   0
PAYNESVILLE    CLEAR     11   4  73 SE8       30.13F WCI  -1
AITKIN         CLEAR      9   0  66 S6        30.07F WCI  -1
PINE RIVER     CLEAR      3  -2  78 S6        30.08F WCI  -8
BRAINERD       CLEAR      8   1  73 S13       30.08F WCI  -8
STAPLES        CLEAR      7   1  78 S12       30.05F WCI  -9
LONG PRAIRIE   FAIR      10   3  72 S12       30.08F WCI  -4
LITTLE FALLS   CLEAR      5   0  78 SE6       30.11F WCI  -6
LITCHFIELD     CLEAR     12   7  79 CALM      30.15F
BUFFALO        CLEAR     11   4  70 S8        30.19F WCI   0
MAPLE LAKE     CLEAR     11   5  78 SE6       30.17F WCI   1
$$
MNZ037-044-045-052-053-060800-
   East Central Minnesota

CITY           SKY/WX    TMP DP  RH WIND       PRES   REMARKS
PRINCETON      CLOUDY    10   3  72 S7        30.16F WCI   0
MORA           PTCLDY     5   0  78 S3        30.18F
CAMBRIDGE      PTCLDY     9   0  66 S7        30.17F WCI  -3
RUSH CITY      MOCLDY     5   0  77 S8        30.19F WCI  -8
MOOSE LAKE     FAIR       5   0  78 S7        30.12F WCI  -7
HINCKLEY       FAIR       5   0  78 S7        30.17F WCI  -7
CLOQUET        CLEAR      7  -2  66 S9G16     30.09F WCI  -7
MCGREGOR       CLEAR      9   3  78 S8        30.08F WCI  -4
$$
MNZ071>073-080-081-089-090-097-098-060800-
   Southwest Minnesota

CITY           SKY/WX    TMP DP  RH WIND       PRES   REMARKS
MONTEVIDEO     FAIR      14   7  73 S7        30.11F WCI   4
GRANITE FALLS  CLEAR     13   7  75 SE7       30.14F WCI   3
CANBY          FAIR      23  10  56 SW18G26   30.09F WCI   9
MARSHALL       CLEAR     19   7  58 SW25      30.11F WCI   2
REDWOOD FALLS  CLEAR     13   5  70 S12       30.15F WCI  -1
OLIVIA         CLEAR     14   9  79 S10       30.13F WCI   1
PIPESTONE      CLEAR     16   9  73 S13       30.10F WCI   2
WINDOM         CLEAR     18   7  62 S14       30.14F WCI   4
WORTHINGTON    CLEAR     16   5  62 S20       30.16F WCI  -1
JACKSON        CLEAR     18   5  57 S16       30.17F WCI   3
TRACY          CLEAR     21   9  61 S22G28    30.11F WCI   5
SLAYTON        CLEAR     17   6  61 S18       30.12F WCI   1
$$
MNZ065>067-074>077-082>085-091>093-060800-
   South Central Minnesota

CITY           SKY/WX    TMP DP  RH WIND       PRES   REMARKS
MANKATO        CLEAR     10   0  61 S14       30.21F WCI  -5
NEW ULM        CLEAR     12   5  73 S16       30.17F WCI  -4
ST JAMES       PTCLDY    16   7  67 S15G22    30.20F WCI   1
FAIRMONT       CLEAR     12   3  67 S16       30.19F WCI  -4
GLENCOE        PTCLDY    13   7  77 S8        30.17F WCI   1
FARIBAULT      CLEAR      7   0  72 S13G18    30.24F WCI  -9
OWATONNA       CLEAR      9   0  66 S20G25    30.23F WCI -11
WASECA         CLEAR     12   3  67 S18G24    30.26F WCI  -5
ALBERT LEA     CLEAR      9   0  66 S14       30.26F WCI  -8
$$
MNZ078>079-086>088-094>096-060800-
   Southeast Minnesota

CITY           SKY/WX    TMP DP  RH WIND       PRES   REMARKS
ROCHESTER      CLEAR      2  -5  72 S15       30.27F WCI -17
RED WING       CLEAR      5  -2  72 SE7       30.28F WCI  -7
STANTON        CLEAR      9   1  68 S12       30.23F WCI  -6
DODGE CENTER   PTCLDY     5   0  78 S20G25    30.24F WCI -15
WINONA         PTCLDY     9   0  66 SE5       30.37F WCI   0
AUSTIN         CLEAR      1  -4  78 S10       30.28F WCI -14
PRESTON        PTCLDY     1  -5  75 S17       30.30F WCI -19
$$
ABBREVIATIONS USED IN REMARKS
   TC - TEMPERATURES IN CELSIUS
  WCI - WIND CHILL INDEX
   HX - HEAT INDEX
  VSB - VISIBILITY
$$


USA.gov is the U.S. government's official web portal to all federal, state and local government web resources and services.